Miscellaneous Local Product
Issued by NWS Hastings, NE

Home | Current Version | Previous Version | Graphics & Text | Print | Product List | Glossary On
Versions: 1 2 3 4 5 6 7 8 9 10 11 12 13 14 15 16 17 18 19 20 21 22 23 24 25 26 27 28 29 30 31 32 33 34 35 36 37 38 39 40 41 42 43 44 45 46 47 48 49 50
727
AXUS43 KGID 240002
MISGRI

GID CWA HOURLY WEATHER ROUNDUP
NATIONAL WEATHER SERVICE HASTINGS NE
700 PM CDT TUE MAY 23 2017

NOTE: "FAIR" INDICATES FEW OR NO CLOUDS BELOW 12,000 FEET WITH NO
SIGNIFICANT WEATHER AND/OR OBSTRUCTIONS TO VISIBILITY.

...SOUTH CENTRAL NEBRASKA...

CITY           SKY/WX    TMP DP  RH WIND       PRES   REMARKS
GRAND ISLAND   CLOUDY    54  42  64 NW20      29.92S
HASTINGS       CLOUDY    54  41  61 N18       29.93S
KEARNEY        CLOUDY    55  37  50 N23G29    29.94F
ORD            CLOUDY    53  39  59 N16G26    29.93S
YORK           PTSUNNY   55  41  58 N15       29.89F
AURORA         CLOUDY    55  40  57 N20G26    29.90F
LEXINGTON      CLOUDY    59  41  50 NW25G31   29.96F
HOLDREGE       CLOUDY    54  39  56 N15G21    29.94F
HEBRON         PTSUNNY   57  43  60 N14G20    29.89F

...NEBRASKA PANHANDLE...

CITY           SKY/WX    TMP DP  RH WIND       PRES   REMARKS
CHADRON        SUNNY     61  36  39 NE13G22   30.03F
ALLIANCE       MOSUNNY   58  35  42 N18       30.03F
SCOTTSBLUFF    MOSUNNY   63  37  38 N12       30.04F
SIDNEY         MOSUNNY   59  36  42 N16       30.04F

...WESTERN AND NORTH CENTRAL NEBRASKA...

CITY           SKY/WX    TMP DP  RH WIND       PRES   REMARKS
VALENTINE      CLOUDY    55  38  52 N13       30.00S
AINSWORTH      CLOUDY    54  43  66 N16       29.98S
ONEILL         CLOUDY    52  42  69 NW20G25   29.95S
BROKEN BOW     PTSUNNY   56  39  53 N23G31    29.95F
IMPERIAL       MOSUNNY   58  33  39 N17G28    30.01S
NORTH PLATTE   CLOUDY    59  36  42 N22G31    29.98F
MCCOOK         MOSUNNY   61  37  41 N22       29.97F

...EASTERN NEBRASKA...

CITY           SKY/WX    TMP DP  RH WIND       PRES   REMARKS
NORFOLK        CLOUDY    52  44  74 NW18G24   29.87S
SO SIOUX CITY  LGT RAIN  51  49  92 N14       29.84R
TEKAMAH        CLOUDY    53  48  83 NW13      29.84R
ALBION         CLOUDY    54  41  62 N12G22    29.91S
OMAHA EPPLEY   CLOUDY    54  47  77 NW10      29.83S
OFFUTT AFB     LGT RAIN  53  47  83 NW9       29.82S
MILLARD        LGT RAIN  56  52  85 N3        29.84S
LINCOLN        CLOUDY    58  44  60 NW14      29.87F
NEBRASKA CITY  CLOUDY    57  44  62 NW15G21   29.83F
BEATRICE       CLOUDY    57  44  62 N17G28    29.86F
FALLS CITY     CLOUDY    58  45  62 N14G24    29.81F

...NORTHERN KANSAS...

CITY           SKY/WX    TMP DP  RH WIND       PRES   REMARKS
GOODLAND       CLOUDY    57  37  47 N17       30.01F
HILL CITY      MOSUNNY   60  37  42 N20G31    29.97S
NORTON         CLOUDY    55  34  44 NW15      29.96S
PHILLIPSBURG   CLOUDY    59  39  47 NW14G24   29.95F
SMITH CENTER   CLOUDY    55  39  54 NW21G28   29.94S
HAYS           MOSUNNY   61  39  44 N21G30    29.94S
RUSSELL        CLOUDY    60  39  45 N24G33    29.92S
CONCORDIA      CLOUDY    56  45  66 N13G22    29.89F
SALINA         CLOUDY    61  44  53 N20       29.89S
TOPEKA         CLOUDY    60  53  77 NW8       29.82F



USA.gov is the U.S. government's official web portal to all federal, state and local government web resources and services.